| time (UTC) | temp F | wind direction | speed knots | gust knots | rain 1hr in | rain 24hr in | rain mn in | humidity % | barometer mb |
| 20260504190515 | 82 | 178 | 1.7 | 9.6 | 0.00 | 0.00 | 0.00 | 69 | 1013.3 |
| 20260504190030 | 83 | 205 | 4.3 | 10.4 | 0.00 | 0.00 | 0.00 | 65 | 1013.4 |
| 20260504185512 | 83 | 184 | 4.3 | 11.3 | 0.00 | 0.00 | 0.00 | 68 | 1013.5 |
| 20260504185009 | 83 | 196 | 4.3 | 11.3 | 0.00 | 0.00 | 0.00 | 65 | 1013.5 |
| 20260504184526 | 82 | 238 | 4.3 | 11.3 | 0.00 | 0.00 | 0.00 | 67 | 1013.8 |
| 20260504184011 | 82 | 171 | 4.3 | 12.2 | 0.00 | 0.00 | 0.00 | 66 | 1013.8 |
| 20260504183514 | 83 | 157 | 5.2 | 12.2 | 0.00 | 0.00 | 0.00 | 65 | 1013.7 |
| 20260504183029 | 83 | 183 | 3.5 | 12.2 | 0.00 | 0.00 | 0.00 | 67 | 1013.8 |
| 20260504182507 | 82 | 185 | 3.5 | 9.6 | 0.00 | 0.00 | 0.00 | 68 | 1013.8 |
| 20260504182011 | 83 | 178 | 3.5 | 9.6 | 0.00 | 0.00 | 0.00 | 67 | 1013.9 |
| 20260504181532 | 83 | 137 | 2.6 | 8.7 | 0.00 | 0.00 | 0.00 | 64 | 1013.9 |
| 20260504181010 | 83 | 161 | 2.6 | 10.4 | 0.00 | 0.00 | 0.00 | 66 | 1014.1 |
| 20260504180513 | 83 | 216 | 5.2 | 10.4 | 0.00 | 0.00 | 0.00 | 68 | 1014.1 |
| 20260504180011 | 83 | 183 | 4.3 | 12.2 | 0.00 | 0.00 | 0.00 | 68 | 1014.1 |
| 20260504175508 | 82 | 171 | 5.2 | 13.0 | 0.00 | 0.00 | 0.00 | 66 | 1014.3 |
| 20260504175004 | 82 | 193 | 5.2 | 13.0 | 0.00 | 0.00 | 0.00 | 67 | 1014.3 |
| 20260504174519 | 81 | 182 | 3.5 | 13.0 | 0.00 | 0.00 | 0.00 | 66 | 1014.5 |
| 20260504174006 | 82 | 170 | 5.2 | 13.0 | 0.00 | 0.00 | 0.00 | 69 | 1014.5 |
| 20260504173507 | 82 | 178 | 5.2 | 14.8 | 0.00 | 0.00 | 0.00 | 67 | 1014.7 |
| 20260504173019 | 82 | 142 | 5.2 | 14.8 | 0.00 | 0.00 | 0.00 | 68 | 1014.6 |
| 20260504172505 | 81 | 163 | 6.1 | 13.9 | 0.00 | 0.00 | 0.00 | 68 | 1014.5 |
| 20260504172004 | 80 | 157 | 2.6 | 11.3 | 0.00 | 0.00 | 0.00 | 72 | 1014.9 |
| 20260504171512 | 80 | 247 | 3.5 | 11.3 | 0.00 | 0.00 | 0.00 | 69 | 1014.9 |
| 20260504171007 | 80 | 157 | 3.5 | 11.3 | 0.00 | 0.00 | 0.00 | 67 | 1015.2 |
| 20260504170506 | 80 | 183 | 4.3 | 13.9 | 0.00 | 0.00 | 0.00 | 67 | 1015.1 |
| 20260504151007 | 75 | 188 | 3.5 | 11.3 | 0.00 | 0.00 | 0.00 | 75 | 1015.8 |
| 20260504150510 | 75 | 221 | 6.1 | 10.4 | 0.00 | 0.00 | 0.00 | 75 | 1015.9 |
| 20260504141008 | 69 | 173 | 3.5 | 7.8 | 0.00 | 0.00 | 0.00 | 82 | 1015.8 |
| 20260504140508 | 68 | 184 | 3.5 | 7.8 | 0.00 | 0.00 | 0.00 | 83 | 1015.8 |
| 20260504130511 | 59 | 163 | 0.9 | 3.5 | 0.00 | 0.00 | 0.00 | 92 | 1015.7 |
| 20260504110506 | 56 | 126 | 0.0 | 0.9 | 0.00 | 0.00 | 0.00 | 89 | 1015.3 |
| 20260504100503 | 57 | 119 | 0.0 | 1.7 | 0.00 | 0.00 | 0.00 | 89 | 1015.5 |
| 20260504081526 | 58 | 51 | 0.0 | 1.7 | 0.00 | 0.00 | 0.00 | 88 | 1016.1 |
| 20260504081010 | 58 | 119 | 0.0 | 0.9 | 0.00 | 0.00 | 0.00 | 88 | 1016.2 |
| 20260504080504 | 58 | 67 | 0.0 | 1.7 | 0.00 | 0.00 | 0.00 | 88 | 1016.2 |
| 20260504050508 | 62 | 137 | 0.9 | 2.6 | 0.00 | 0.00 | 0.00 | 78 | 1018.6 |
| 20260504045506 | 62 | 161 | 0.0 | 1.7 | 0.00 | 0.00 | 0.00 | 79 | 1018.5 |
| 20260504045504 | 62 | 157 | 0.0 | 1.7 | 0.00 | 0.00 | 0.00 | 79 | 1018.5 |
| 20260504045004 | 63 | 93 | 0.0 | 1.7 | 0.00 | 0.00 | 0.00 | 78 | 1018.5 |
| 20260504044515 | 63 | 168 | 0.0 | 2.6 | 0.00 | 0.00 | 0.00 | 78 | 1018.6 |
| 20260504044005 | 63 | 93 | 0.9 | 2.6 | 0.00 | 0.00 | 0.00 | 76 | 1018.5 |
| 20260504043508 | 63 | 119 | 0.0 | 1.7 | 0.00 | 0.00 | 0.00 | 76 | 1018.5 |
| 20260504043024 | 63 | 146 | 0.0 | 1.7 | 0.00 | 0.00 | 0.00 | 76 | 1018.6 |
| 20260504042509 | 63 | 153 | 0.0 | 1.7 | 0.00 | 0.00 | 0.00 | 75 | 1018.7 |
| 20260504042009 | 64 | 161 | 0.9 | 1.7 | 0.00 | 0.00 | 0.00 | 76 | 1018.6 |
| 20260504041510 | 64 | 93 | 0.0 | 1.7 | 0.00 | 0.00 | 0.00 | 76 | 1018.7 |
| 20260504041007 | 64 | 126 | 0.0 | 1.7 | 0.00 | 0.00 | 0.00 | 75 | 1018.7 |
| 20260504040507 | 64 | 165 | 0.9 | 1.7 | 0.00 | 0.00 | 0.00 | 73 | 1018.7 |
| 20260504040018 | 64 | 205 | 0.9 | 2.6 | 0.00 | 0.00 | 0.00 | 73 | 1018.6 |
| 20260504035512 | 64 | 168 | 0.9 | 4.3 | 0.00 | 0.00 | 0.00 | 73 | 1018.6 |
| 20260504035009 | 64 | 153 | 0.9 | 5.2 | 0.00 | 0.00 | 0.00 | 72 | 1018.3 |
| 20260504034525 | 65 | 161 | 0.9 | 5.2 | 0.00 | 0.00 | 0.00 | 72 | 1018.3 |
| 20260504034011 | 65 | 178 | 0.9 | 3.5 | 0.00 | 0.00 | 0.00 | 72 | 1018.3 |
| 20260504033509 | 65 | 165 | 0.9 | 5.2 | 0.00 | 0.00 | 0.00 | 71 | 1018.3 |
| 20260504033027 | 65 | 198 | 1.7 | 5.2 | 0.00 | 0.00 | 0.00 | 71 | 1018.4 |
| 20260504032509 | 65 | 221 | 1.7 | 5.2 | 0.00 | 0.00 | 0.00 | 71 | 1018.4 |
| 20260504032009 | 66 | 153 | 0.9 | 5.2 | 0.00 | 0.00 | 0.00 | 70 | 1018.4 |
| 20260504031523 | 66 | 170 | 1.7 | 5.2 | 0.00 | 0.00 | 0.00 | 69 | 1018.3 |
| 20260504031009 | 66 | 163 | 1.7 | 6.1 | 0.00 | 0.00 | 0.00 | 69 | 1018.2 |
| 20260504030509 | 66 | 234 | 2.6 | 6.1 | 0.00 | 0.00 | 0.00 | 69 | 1018.2 |
| 20260504030029 | 66 | 166 | 1.7 | 5.2 | 0.00 | 0.00 | 0.00 | 68 | 1018.2 |
| 20260504025503 | 67 | 200 | 2.6 | 5.2 | 0.00 | 0.00 | 0.00 | 68 | 1018.2 |
| 20260504025004 | 67 | 169 | 2.6 | 7.0 | 0.00 | 0.00 | 0.00 | 67 | 1018.1 |
| 20260504024511 | 67 | 188 | 1.7 | 7.0 | 0.00 | 0.00 | 0.00 | 67 | 1018.1 |
| 20260504024007 | 67 | 192 | 3.5 | 6.1 | 0.00 | 0.00 | 0.00 | 67 | 1018.1 |
| 20260504023508 | 67 | 146 | 2.6 | 6.1 | 0.00 | 0.00 | 0.00 | 66 | 1018.0 |
| 20260504023025 | 68 | 221 | 2.6 | 7.8 | 0.00 | 0.00 | 0.00 | 66 | 1017.9 |
| 20260504022509 | 68 | 169 | 3.5 | 7.8 | 0.00 | 0.00 | 0.00 | 65 | 1018.0 |
| 20260504022010 | 68 | 155 | 2.6 | 7.8 | 0.00 | 0.00 | 0.00 | 65 | 1018.0 |
| 20260504021509 | 68 | 178 | 2.6 | 7.8 | 0.00 | 0.00 | 0.00 | 65 | 1017.9 |
| 20260504021004 | 68 | 188 | 1.7 | 6.1 | 0.00 | 0.00 | 0.00 | 64 | 1017.9 |
| 20260504020508 | 69 | 167 | 2.6 | 6.1 | 0.00 | 0.00 | 0.00 | 63 | 1017.9 |
| 20260504020016 | 69 | 164 | 1.7 | 5.2 | 0.00 | 0.00 | 0.00 | 63 | 1017.9 |
| 20260504015506 | 69 | 159 | 1.7 | 8.7 | 0.00 | 0.00 | 0.00 | 63 | 1017.8 |
| 20260504015008 | 69 | 169 | 2.6 | 8.7 | 0.00 | 0.00 | 0.00 | 62 | 1017.7 |
| 20260504014521 | 70 | 146 | 2.6 | 7.8 | 0.00 | 0.00 | 0.00 | 62 | 1017.8 |
| 20260504014012 | 70 | 175 | 2.6 | 8.7 | 0.00 | 0.00 | 0.00 | 62 | 1017.9 |
| 20260504013506 | 70 | 167 | 3.5 | 8.7 | 0.00 | 0.00 | 0.00 | 61 | 1018.0 |
| 20260504013014 | 70 | 173 | 3.5 | 9.6 | 0.00 | 0.00 | 0.00 | 60 | 1017.9 |
| 20260504012507 | 71 | 140 | 5.2 | 9.6 | 0.00 | 0.00 | 0.00 | 60 | 1017.8 |
| 20260504012011 | 71 | 186 | 3.5 | 7.8 | 0.00 | 0.00 | 0.00 | 60 | 1017.8 |
| 20260504011519 | 71 | 155 | 2.6 | 7.0 | 0.00 | 0.00 | 0.00 | 59 | 1017.7 |
| 20260504011006 | 72 | 153 | 1.7 | 6.1 | 0.00 | 0.00 | 0.00 | 58 | 1017.8 |
| 20260504010512 | 72 | 177 | 1.7 | 6.1 | 0.00 | 0.00 | 0.00 | 58 | 1017.7 |
| 20260504010026 | 73 | 161 | 1.7 | 9.6 | 0.00 | 0.00 | 0.00 | 57 | 1017.7 |
| 20260504005505 | 73 | 213 | 4.3 | 9.6 | 0.00 | 0.00 | 0.00 | 56 | 1017.6 |
| 20260504005007 | 74 | 229 | 4.3 | 9.6 | 0.00 | 0.00 | 0.00 | 55 | 1017.8 |
| 20260504004515 | 74 | 205 | 3.5 | 8.7 | 0.00 | 0.00 | 0.00 | 55 | 1017.8 |
| 20260504004009 | 75 | 170 | 3.5 | 8.7 | 0.00 | 0.00 | 0.00 | 54 | 1017.7 |
| 20260504003509 | 75 | 178 | 1.7 | 9.6 | 0.00 | 0.00 | 0.00 | 55 | 1017.9 |
| 20260504003030 | 75 | 164 | 2.6 | 9.6 | 0.00 | 0.00 | 0.00 | 53 | 1017.8 |
| 20260504002509 | 75 | 163 | 3.5 | 10.4 | 0.00 | 0.00 | 0.00 | 53 | 1017.7 |
| 20260504002009 | 76 | 198 | 4.3 | 10.4 | 0.00 | 0.00 | 0.00 | 53 | 1017.7 |
| 20260504001510 | 76 | 196 | 4.3 | 9.6 | 0.00 | 0.00 | 0.00 | 51 | 1017.8 |
| 20260504001004 | 77 | 187 | 4.3 | 14.8 | 0.00 | 0.00 | 0.00 | 50 | 1017.7 |
| 20260504000506 | 78 | 166 | 5.2 | 14.8 | 0.00 | 0.00 | 0.00 | 49 | 1017.8 |
| 20260504000046 | 80 | 166 | 6.1 | 14.8 | 0.00 | 0.00 | 0.00 | 48 | 1017.7 |
| 20260503235509 | 81 | 160 | 4.3 | 8.7 | 0.00 | 0.00 | 0.00 | 46 | 1017.7 |
| 20260503235008 | 81 | 188 | 3.5 | 7.8 | 0.00 | 0.00 | 0.00 | 45 | 1017.8 |
| 20260503234526 | 82 | 234 | 1.7 | 7.8 | 0.00 | 0.00 | 0.00 | 43 | 1017.8 |
| 20260503234008 | 82 | 205 | 2.6 | 7.8 | 0.00 | 0.00 | 0.00 | 45 | 1017.7 |
| 20260503233502 | 82 | 184 | 2.6 | 8.7 | 0.00 | 0.00 | 0.00 | 45 | 1017.7 |
| 20260503233010 | 82 | 178 | 3.5 | 9.6 | 0.00 | 0.00 | 0.00 | 45 | 1017.8 |
| 20260503232507 | 83 | 238 | 2.6 | 9.6 | 0.00 | 0.00 | 0.00 | 42 | 1017.9 |
| 20260503232007 | 83 | 196 | 3.5 | 10.4 | 0.00 | 0.00 | 0.00 | 44 | 1017.9 |
| 20260503231523 | 83 | 173 | 2.6 | 10.4 | 0.00 | 0.00 | 0.00 | 42 | 1018.1 |
| 20260503231009 | 83 | 185 | 4.3 | 8.7 | 0.00 | 0.00 | 0.00 | 43 | 1018.0 |
| 20260503230509 | 83 | 198 | 3.5 | 9.6 | 0.00 | 0.00 | 0.00 | 41 | 1018.1 |
| 20260503230026 | 82 | 186 | 3.5 | 9.6 | 0.00 | 0.00 | 0.00 | 42 | 1018.1 |
| 20260503225509 | 83 | 139 | 1.7 | 10.4 | 0.00 | 0.00 | 0.00 | 45 | 1018.0 |
| 20260503225009 | 82 | 209 | 4.3 | 10.4 | 0.00 | 0.00 | 0.00 | 42 | 1018.0 |
| 20260503224515 | 82 | 196 | 2.6 | 10.4 | 0.00 | 0.00 | 0.00 | 42 | 1018.1 |
| 20260503224006 | 83 | 194 | 4.3 | 10.4 | 0.00 | 0.00 | 0.00 | 41 | 1018.2 |
| 20260503223511 | 83 | 247 | 2.6 | 9.6 | 0.00 | 0.00 | 0.00 | 42 | 1018.2 |
| 20260503223028 | 84 | 161 | 1.7 | 8.7 | 0.00 | 0.00 | 0.00 | 39 | 1018.3 |
| 20260503222509 | 84 | 148 | 3.5 | 8.7 | 0.00 | 0.00 | 0.00 | 45 | 1018.2 |
| 20260503222011 | 83 | 119 | 1.7 | 10.4 | 0.00 | 0.00 | 0.00 | 42 | 1018.4 |
| 20260503221532 | 84 | 51 | 4.3 | 10.4 | 0.00 | 0.00 | 0.00 | 40 | 1018.5 |
| 20260503221014 | 84 | 191 | 3.5 | 8.7 | 0.00 | 0.00 | 0.00 | 42 | 1018.4 |
| 20260503220509 | 83 | 163 | 3.5 | 8.7 | 0.00 | 0.00 | 0.00 | 44 | 1018.4 |
| 20260503220021 | 83 | 294 | 1.7 | 9.6 | 0.00 | 0.00 | 0.00 | 43 | 1018.4 |
| 20260503215512 | 83 | 295 | 1.7 | 9.6 | 0.00 | 0.00 | 0.00 | 42 | 1018.3 |
| 20260503215009 | 84 | 148 | 2.6 | 12.2 | 0.00 | 0.00 | 0.00 | 42 | 1018.5 |
| 20260503214524 | 85 | 191 | 3.5 | 12.2 | 0.00 | 0.00 | 0.00 | 42 | 1018.7 |
| 20260503214014 | 85 | 218 | 3.5 | 9.6 | 0.00 | 0.00 | 0.00 | 41 | 1018.6 |
| 20260503213516 | 86 | 17 | 2.6 | 7.0 | 0.00 | 0.00 | 0.00 | 40 | 1018.7 |
| 20260503213026 | 86 | 215 | 2.6 | 6.1 | 0.00 | 0.00 | 0.00 | 45 | 1018.9 |
| 20260503212510 | 85 | 205 | 0.9 | 6.1 | 0.00 | 0.00 | 0.00 | 45 | 1019.1 |
| 20260503212012 | 85 | 197 | 0.9 | 8.7 | 0.00 | 0.00 | 0.00 | 45 | 1019.2 |
| 20260503211521 | 84 | 170 | 1.7 | 8.7 | 0.00 | 0.00 | 0.00 | 45 | 1019.2 |
| 20260503211011 | 83 | 192 | 2.6 | 8.7 | 0.00 | 0.00 | 0.00 | 47 | 1019.4 |
| 20260503210515 | 84 | 175 | 3.5 | 12.2 | 0.00 | 0.00 | 0.00 | 39 | 1019.5 |
| 20260503210026 | 85 | 145 | 6.1 | 12.2 | 0.00 | 0.00 | 0.00 | 41 | 1019.4 |
| 20260503205511 | 86 | 191 | 5.2 | 9.6 | 0.00 | 0.00 | 0.00 | 45 | 1019.5 |
| 20260503205009 | 86 | 194 | 2.6 | 7.8 | 0.00 | 0.00 | 0.00 | 44 | 1019.5 |
| 20260503204527 | 85 | 178 | 1.7 | 8.7 | 0.00 | 0.00 | 0.00 | 48 | 1019.5 |
| 20260503204011 | 85 | 170 | 1.7 | 10.4 | 0.00 | 0.00 | 0.00 | 48 | 1019.6 |
| 20260503203509 | 85 | 167 | 2.6 | 10.4 | 0.00 | 0.00 | 0.00 | 49 | 1019.7 |
| 20260503203038 | 84 | 83 | 1.7 | 8.7 | 0.00 | 0.00 | 0.00 | 54 | 1019.7 |
| 20260503202510 | 83 | 88 | 1.7 | 8.7 | 0.00 | 0.00 | 0.00 | 52 | 1019.8 |
| 20260503202013 | 82 | 205 | 2.6 | 6.1 | 0.00 | 0.00 | 0.00 | 50 | 1019.8 |
| 20260503201533 | 83 | 309 | 1.7 | 7.8 | 0.00 | 0.00 | 0.00 | 42 | 1019.9 |
| 20260503201009 | 85 | 88 | 2.6 | 10.4 | 0.00 | 0.00 | 0.00 | 48 | 1020.1 |
| 20260503200511 | 85 | 165 | 3.5 | 10.4 | 0.00 | 0.00 | 0.00 | 49 | 1020.1 |
| 20260503200028 | 84 | 202 | 3.5 | 7.8 | 0.00 | 0.00 | 0.00 | 48 | 1020.3 |
| 20260503195508 | 84 | 63 | 1.7 | 6.1 | 0.00 | 0.00 | 0.00 | 49 | 1020.3 |
| 20260503195010 | 84 | 200 | 1.7 | 5.2 | 0.00 | 0.00 | 0.00 | 51 | 1020.4 |
| 20260503194525 | 84 | 187 | 1.7 | 7.0 | 0.00 | 0.00 | 0.00 | 56 | 1020.5 |
| 20260503194009 | 83 | 153 | 1.7 | 11.3 | 0.00 | 0.00 | 0.00 | 51 | 1020.5 |
| 20260503193510 | 83 | 190 | 2.6 | 11.3 | 0.00 | 0.00 | 0.00 | 52 | 1020.7 |
| 20260503193028 | 82 | 191 | 3.5 | 10.4 | 0.00 | 0.00 | 0.00 | 52 | 1020.6 |
| 20260503192512 | 82 | 232 | 1.7 | 7.0 | 0.00 | 0.00 | 0.00 | 46 | 1020.8 |
| 20260503192009 | 81 | 76 | 1.7 | 6.1 | 0.00 | 0.00 | 0.00 | 52 | 1020.9 |
| 20260503191524 | 81 | 93 | 1.7 | 6.1 | 0.00 | 0.00 | 0.00 | 46 | 1020.9 |
| 20260503191010 | 82 | 247 | 1.7 | 9.6 | 0.00 | 0.00 | 0.00 | 52 | 1021.2 |